When you browse on this site, cookies collect data to enhance your experience and personalize the content and advertising you see.
Visit our Privacy Policy to learn more. By continuing to use the site, you agree to this use of cookies and data.
  • In United Kingdom
  • List of Countries
  • For 7 days
  • Water Temperature
  • Satellite Maps
  • Weather Map
  • Weather Widgets
  • user-avatar
    Login

    Hourly Weather Yangibozor

    Today, 20 June, Thursday

    Time Temperature Precipitation Wind Pressure Humidity
    00:00 +27°C° 0 mm 2 mps 735 mmHg 22%
    01:00 +27°C° 0 mm 3 mps 735 mmHg 22%
    02:00 +27°C° 0 mm 3 mps 735 mmHg 21%
    03:00 +26°C° 0 mm 3 mps 735 mmHg 20%
    04:00 +26°C° 0 mm 3 mps 735 mmHg 17%
    05:00 +28°C° 0 mm 3 mps 735 mmHg 15%
    06:00 +30°C° 0 mm 3 mps 736 mmHg 13%
    07:00 +33°C° 0 mm 3 mps 736 mmHg 11%
    08:00 +35°C° 0 mm 3 mps 736 mmHg 11%
    09:00 +37°C° 0 mm 4 mps 736 mmHg 10%
    10:00 +38°C° 0 mm 4 mps 736 mmHg 10%
    11:00 +40°C° 0 mm 4 mps 736 mmHg 10%
    12:00 +40°C° 0 mm 4 mps 736 mmHg 9%
    13:00 +41°C° 0 mm 4 mps 735 mmHg 9%
    14:00 +41°C° 0 mm 4 mps 735 mmHg 9%
    15:00 +41°C° 0 mm 4 mps 735 mmHg 9%
    16:00 +41°C° 0 mm 4 mps 734 mmHg 8%
    17:00 +40°C° 0 mm 4 mps 734 mmHg 9%
    18:00 +37°C° 0 mm 4 mps 735 mmHg 10%
    19:00 +35°C° 0 mm 4 mps 735 mmHg 11%
    20:00 +34°C° 0 mm 4 mps 735 mmHg 12%
    21:00 +32°C° 0 mm 4 mps 735 mmHg 12%
    22:00 +30°C° 0 mm 5 mps 735 mmHg 13%
    23:00 +29°C° 0 mm 4 mps 735 mmHg 13%

    Tomorrow, 21 June, Friday

    Time Temperature Precipitation Wind Pressure Humidity
    00:00 +29°C° 0 mm 4 mps 735 mmHg 13%
    01:00 +28°C° 0 mm 4 mps 735 mmHg 12%
    02:00 +28°C° 0 mm 4 mps 735 mmHg 13%
    03:00 +27°C° 0 mm 4 mps 735 mmHg 13%
    04:00 +27°C° 0 mm 4 mps 735 mmHg 13%
    05:00 +29°C° 0 mm 4 mps 735 mmHg 13%
    06:00 +32°C° 0 mm 4 mps 735 mmHg 12%
    07:00 +34°C° 0 mm 5 mps 735 mmHg 11%
    08:00 +36°C° 0 mm 5 mps 736 mmHg 10%
    09:00 +37°C° 0 mm 5 mps 736 mmHg 9%
    10:00 +40°C° 0 mm 5 mps 736 mmHg 8%
    11:00 +41°C° 0 mm 5 mps 735 mmHg 8%
    12:00 +41°C° 0 mm 5 mps 735 mmHg 7%
    13:00 +42°C° 0 mm 5 mps 735 mmHg 7%
    14:00 +42°C° 0 mm 5 mps 735 mmHg 7%
    15:00 +42°C° 0 mm 5 mps 735 mmHg 7%
    16:00 +42°C° 0 mm 6 mps 734 mmHg 7%
    17:00 +40°C° 0 mm 5 mps 735 mmHg 8%
    18:00 +37°C° 0 mm 5 mps 735 mmHg 9%
    19:00 +36°C° 0 mm 5 mps 735 mmHg 10%
    20:00 +34°C° 0 mm 5 mps 735 mmHg 11%
    21:00 +33°C° 0 mm 6 mps 735 mmHg 12%
    22:00 +32°C° 0 mm 6 mps 735 mmHg 13%
    23:00 +30°C° 0 mm 6 mps 735 mmHg 15%

    Day after tomorrow, 22 June, Saturday

    Time Temperature Precipitation Wind Pressure Humidity
    00:00 +30°C° 0 mm 6 mps 735 mmHg 16%
    01:00 +29°C° 0 mm 5 mps 735 mmHg 18%
    02:00 +28°C° 0 mm 5 mps 736 mmHg 19%
    03:00 +28°C° 0 mm 5 mps 736 mmHg 21%
    04:00 +28°C° 0 mm 5 mps 736 mmHg 23%
    05:00 +30°C° 0 mm 6 mps 736 mmHg 20%
    06:00 +33°C° 0 mm 7 mps 737 mmHg 18%
    07:00 +34°C° 0 mm 8 mps 737 mmHg 16%
    08:00 +37°C° 0 mm 8 mps 737 mmHg 15%
    09:00 +38°C° 0 mm 8 mps 737 mmHg 13%
    10:00 +40°C° 0 mm 8 mps 738 mmHg 11%
    11:00 +40°C° 0 mm 8 mps 738 mmHg 11%
    12:00 +41°C° 0 mm 8 mps 738 mmHg 10%
    13:00 +43°C° 0 mm 8 mps 737 mmHg 9%
    14:00 +41°C° 0 mm 8 mps 737 mmHg 9%
    15:00 +41°C° 0 mm 8 mps 737 mmHg 9%
    16:00 +41°C° 0 mm 8 mps 737 mmHg 9%
    17:00 +40°C° 0 mm 7 mps 737 mmHg 10%
    18:00 +38°C° 0 mm 6 mps 737 mmHg 11%
    19:00 +35°C° 0 mm 5 mps 737 mmHg 12%
    20:00 +34°C° 0 mm 5 mps 737 mmHg 13%
    21:00 +33°C° 0 mm 4 mps 737 mmHg 14%
    22:00 +32°C° 0 mm 4 mps 737 mmHg 16%
    23:00 +30°C° 0 mm 4 mps 737 mmHg 17%

    23 June, Sunday

    Time Temperature Precipitation Wind Pressure Humidity
    00:00 +29°C° 0 mm 4 mps 737 mmHg 18%
    01:00 +29°C° 0 mm 4 mps 737 mmHg 19%
    02:00 +28°C° 0 mm 4 mps 737 mmHg 20%
    03:00 +28°C° 0 mm 5 mps 737 mmHg 21%
    04:00 +27°C° 0 mm 5 mps 737 mmHg 23%
    05:00 +29°C° 0 mm 5 mps 737 mmHg 20%
    06:00 +32°C° 0 mm 6 mps 738 mmHg 18%
    07:00 +34°C° 0 mm 6 mps 738 mmHg 16%
    08:00 +35°C° 0 mm 7 mps 738 mmHg 14%
    09:00 +37°C° 0 mm 8 mps 738 mmHg 13%
    10:00 +39°C° 0 mm 8 mps 739 mmHg 11%
    11:00 +39°C° 0 mm 9 mps 738 mmHg 11%
    12:00 +40°C° 0 mm 9 mps 738 mmHg 10%
    13:00 +42°C° 0 mm 9 mps 738 mmHg 10%
    14:00 +42°C° 0 mm 9 mps 738 mmHg 10%
    15:00 +42°C° 0 mm 9 mps 738 mmHg 10%
    16:00 +42°C° 0 mm 9 mps 738 mmHg 11%
    17:00 +39°C° 0 mm 8 mps 738 mmHg 12%
    18:00 +38°C° 0 mm 7 mps 738 mmHg 13%
    19:00 +35°C° 0 mm 6 mps 738 mmHg 14%
    20:00 +34°C° 0 mm 6 mps 738 mmHg 15%
    21:00 +33°C° 0 mm 7 mps 738 mmHg 15%
    22:00 +32°C° 0 mm 8 mps 738 mmHg 16%
    23:00 +31°C° 0 mm 8 mps 738 mmHg 17%

    24 June, Monday

    Time Temperature Precipitation Wind Pressure Humidity
    00:00 +29°C° 0 mm 8 mps 738 mmHg 18%
    01:00 +29°C° 0 mm 8 mps 738 mmHg 19%
    02:00 +28°C° 0 mm 7 mps 738 mmHg 19%
    03:00 +27°C° 0 mm 7 mps 738 mmHg 19%
    04:00 +26°C° 0 mm 7 mps 738 mmHg 19%
    05:00 +27°C° 0 mm 8 mps 738 mmHg 17%
    06:00 +28°C° 0 mm 8 mps 738 mmHg 15%
    07:00 +31°C° 0 mm 9 mps 738 mmHg 14%
    08:00 +33°C° 0 mm 9 mps 738 mmHg 13%
    09:00 +35°C° 0 mm 9 mps 738 mmHg 11%
    10:00 +38°C° 0 mm 10 mps 738 mmHg 10%
    11:00 +39°C° 0 mm 9 mps 738 mmHg 9%
    12:00 +40°C° 0 mm 9 mps 737 mmHg 8%
    13:00 +43°C° 0 mm 8 mps 737 mmHg 7%
    14:00 +43°C° 0 mm 9 mps 737 mmHg 7%
    15:00 +43°C° 0 mm 9 mps 736 mmHg 7%
    16:00 +43°C° 0 mm 10 mps 736 mmHg 7%
    17:00 +40°C° 0 mm 9 mps 736 mmHg 8%
    18:00 +38°C° 0 mm 8 mps 736 mmHg 8%
    19:00 +36°C° 0 mm 7 mps 736 mmHg 9%
    20:00 +34°C° 0 mm 6 mps 736 mmHg 10%
    21:00 +33°C° 0 mm 6 mps 736 mmHg 11%
    22:00 +30°C° 0 mm 6 mps 736 mmHg 12%
    23:00 +29°C° 0 mm 6 mps 736 mmHg 13%

    25 June, Tuesday

    Time Temperature Precipitation Wind Pressure Humidity
    00:00 +28°C° 0 mm 6 mps 736 mmHg 13%
    01:00 +27°C° 0 mm 6 mps 736 mmHg 14%
    02:00 +27°C° 0 mm 6 mps 736 mmHg 15%
    03:00 +26°C° 0 mm 6 mps 736 mmHg 16%
    04:00 +26°C° 0 mm 7 mps 736 mmHg 16%
    05:00 +28°C° 0 mm 7 mps 736 mmHg 16%
    06:00 +29°C° 0 mm 8 mps 736 mmHg 15%
    07:00 +32°C° 0 mm 9 mps 737 mmHg 14%
    08:00 +34°C° 0 mm 9 mps 737 mmHg 12%
    09:00 +37°C° 0 mm 10 mps 737 mmHg 10%
    10:00 +39°C° 0 mm 10 mps 737 mmHg 9%
    11:00 +40°C° 0 mm 10 mps 736 mmHg 8%
    12:00 +42°C° 0 mm 9 mps 736 mmHg 7%
    13:00 +43°C° 0 mm 9 mps 736 mmHg 7%
    14:00 +43°C° 0 mm 8 mps 735 mmHg 7%
    15:00 +43°C° 0 mm 8 mps 735 mmHg 7%
    16:00 +43°C° 0 mm 8 mps 735 mmHg 7%
    17:00 +40°C° 0 mm 6 mps 735 mmHg 8%
    18:00 +37°C° 0 mm 5 mps 735 mmHg 9%
    19:00 +35°C° 0 mm 4 mps 735 mmHg 10%
    20:00 +34°C° 0 mm 4 mps 735 mmHg 11%
    21:00 +33°C° 0 mm 4 mps 735 mmHg 12%
    22:00 +30°C° 0 mm 4 mps 735 mmHg 13%
    23:00 +29°C° 0 mm 4 mps 735 mmHg 16%
    Show more